Regional Weather Roundup
Issued by NWS Upton, NY

Current Version | Previous Version | Text Only | Print | Product List | Glossary On
Versions: 1 2 3 4 5 6 7 8 9 10 11 12 13 14 15 16 17 18 19 20 21 22 23 24 25 26 27 28 29 30 31 32 33 34 35 36 37 38 39 40 41 42 43 44 45 46 47 48 49 50
000
ASUS41 KOKX 302005
RWROKX
REGIONAL WEATHER ROUNDUP
NATIONAL WEATHER SERVICE NEW YORK NY
400 PM EDT WED JUL 30 2014

NOTE: "FAIR" INDICATES FEW OR NO CLOUDS BELOW 12,000 FEET WITH NO
SIGNIFICANT WEATHER AND/OR OBSTRUCTIONS TO VISIBILITY.

NYZ071-072-176-178-NJZ106-104-302100-
NEW YORK CITY METRO AREA


CITY           SKY/WX    TMP DP  RH WIND       PRES   REMARKS
CENTRAL PARK   PTSUNNY   78  50  37 CALM      30.02F
LAGUARDIA APRT MOSUNNY   80  45  28 W9        29.99F
KENNEDY INTL   MOSUNNY   79  50  36 S14       30.01S
NEWARK/LIBERTY PTSUNNY   77  50  38 S5        30.00S
BRNX BOT. GARD   N/A     77  48  36 W13       30.00S
TETERBORO      SUNNY     83  50  31 VRB7      29.99S
$$

NYZ177-179-078>081-302100-
LONG ISLAND NEW YORK

CITY           SKY/WX    TMP DP  RH WIND       PRES   REMARKS
FARMINGDALE    SUNNY     76  51  41 S9G18     30.00F
ISLIP          MOSUNNY   78  53  41 S12       30.00R
SHIRLEY        SUNNY     78  54  43 S14       30.02R
WESTHAMPTON    MOSUNNY   77  53  43 S9        30.03S
MONTAUK POINT    N/A     77  56  48 VRB5      30.03S
$$

NYZ052-065-067-302100-
HUDSON VALLEY

CITY           SKY/WX    TMP DP  RH WIND       PRES   REMARKS
WHITE PLAINS   MOSUNNY   76  48  37 SW3       30.00S
NEWBURGH       MOSUNNY   75  52  43 W7        30.01F
MONTGOMERY     PTSUNNY   76  52  43 SW5       29.99F
POUGHKEEPSIE   MOSUNNY   77  52  41 W7        29.98F
ALBANY         PTSUNNY   76  53  44 VRB5      29.98F
$$

NJZ001-105-106-008-010-013-015-019>022-104-302100-
NEW JERSEY

CITY           SKY/WX    TMP DP  RH WIND       PRES   REMARKS
NEWARK/LIBERTY PTSUNNY   77  50  38 S5        30.00S
TETERBORO      SUNNY     83  50  31 VRB7      29.99S
CALDWELL       PTSUNNY   78  49  35 SW5       30.01S
MORRISTOWN     PTSUNNY   79  50  36 SW9G16    30.01S
SOMERVILLE     SUNNY     78  51  38 CALM      30.00S
LINDEN         FAIR      80  49  33 W5        30.02S
SUSSEX         PTSUNNY   76  56  49 S5        30.01S
ANDOVER          N/A     75  53  46 SW6       30.02S
TRENTON        MOSUNNY   77  50  38 VRB5      30.01F
MILLVILLE      PTSUNNY   80  52  37 W12G18    30.04S
ATLANTIC CITY  MOSUNNY   80  51  36 CALM      30.02F
WRIGHTSTOWN    MOSUNNY   79  50  36 W7        30.00S
TOMS RIVER     PTSUNNY   81  48  32 SW3       30.02S
BELMAR         MOSUNNY   79  50  36 W6        30.02S
$$

PAZ047>061-062-071-302100-
EASTERN PENNSYLVANIA

CITY           SKY/WX    TMP DP  RH WIND       PRES   REMARKS
PHILADELPHIA   MOSUNNY   80  51  36 SW12      30.03S
ALLENTOWN      MOSUNNY   77  54  44 SW10      30.02F
SCRANTON       PTSUNNY   76  50  40 W12       30.01F
$$

CTZ002-004>006-009-010-012-RIZ004-006-007-MAZ004-011-015-302100-
SOUTHERN NEW ENGLAND
 IN CT

CITY           SKY/WX    TMP DP  RH WIND       PRES   REMARKS
BRADLEY INTL   PTSUNNY   78  47  33 W7        29.98S
HARTFORD       PTSUNNY   78  46  32 VRB6      29.98S
DANBURY        MOSUNNY   75  49  39 SW7       30.02S
WTRBRY/OXFORD  MOSUNNY   73  50  43 NW7       30.04S
BRIDGEPORT     SUNNY     79  53  40 S13       30.00S
MERIDEN        PTSUNNY   79  49  34 SW6       29.99S
NEW HAVEN      MOSUNNY   79  58  48 S7        30.01R
CHESTER        MOCLDY    75  52  43 S7        30.01S
GROTON         MOSUNNY   73  59  61 S9        30.00S
WILLIMANTIC    MOSUNNY   76  50  40 W5        29.99F

 IN RI

CITY           SKY/WX    TMP DP  RH WIND       PRES   REMARKS
PROVIDENCE     PTSUNNY   78  54  43 SW8       29.99S
BLOCK ISLAND   SUNNY     75  55  50 SW10      30.02S
WESTERLY       SUNNY     76  55  48 S10       30.01S

 IN MA

CITY           SKY/WX    TMP DP  RH WIND       PRES   REMARKS
BOSTON         MOSUNNY   73  57  57 E9        29.98S
WORCESTER      SUNNY     73  47  39 W5        30.01S
WESTFIELD      MOSUNNY   78  49  35 S8        29.98F
PROVINCETOWN   SUNNY     79  54  41 S7        29.99S
NANTUCKET      SUNNY     74  58  57 SW12      30.01R
$$

ANZ330-335-338-340-345-350-353-355-302100-
COASTAL MARINE OBSERVATIONS


STATION/POSITION TIME  SKY/WX   TEMP    WIND        PRES    VSBY  WAVE
                                AIR SEA DIR/SP/G                  HT/PER
                 (UTC)          (F)     (DEG/KT/KT) (MB)    (MI)  (FT/S)
NY HARB ENTRANCE NOT AVBL
4S FIRE IS       NOT AVBL
23SW MTP         2000            73 72              1016.1          3/ 8
HUDSON CANYON    2000            72 76  320/  6/  8 1017.0          3/ 8
EXECUTION ROCKS  2000            80 71  170/  2/  6   N/A
WESTERN LI SOUND 2000            76     120/  4/  6   N/A           0
CENTRAL LI SOUND 1900            73 74  250/  6/  8   N/A           0
EASTERN LI SOUND 1900            73 69  190/  6/  8   N/A
ROBBINS REEF     2000            77     260/  6/  9   N/A
$$


>>>>>>>>>>>>>>>>>>>>>>>>>>>> KEY <<<<<<<<<<<<<<<<<<<<<<<<<<<
>                                                          <
>     SKY/WX - SKY CONDITION/PRESENT WEATHER               <
>     TMP    - TEMPERATURE IN FAHRENHEIT                   <
>     DP     - DEWPOINT IN FAHRENHEIT                      <
>     RH     - RELATIVE HUMIDITY IN PERCENT                <
>     WIND   - DIRECTION AND SPEED IN MPH                  <
>     PRES   - MEAN SEA LEVEL PRESSURE IN INCHES OF HG     <
>     WCI    - WIND CHILL INDEX                            <
>     VSB    - VISIBILITY IN MILES                         <
>     HX     - HEAT INDEX                                  <
>     TC     - TEMPERATURE IN CELSIUS                      <
>     VRB    - VARIABLE WIND DIRECTION                     <
>                                                          <
>>>>>>>>>>>>>>>>>>>>>>>>>>>> KEY <<<<<<<<<<<<<<<<<<<<<<<<<<<





USA.gov is the U.S. government's official web portal to all federal, state and local government web resources and services.